[[{"header":{"parameterUnit":"m.s-1","parameterCategory":1,"la1":30.2991,"la2":30.254,"lo1":-89.0895,"lo2":-89.0444,"dy":0.0017,"dx":0.0017,"nx":28,"ny":28,"refTime":"2024-05-05T21:00:00:Z","depth":0,"parameterNumber":2,"parameterNumberName":"U-component_of_WINDS"},"data":[0,0,0,0,0,0,0,0,0,0,0,0,0,0,0,0,0,0,0,0,0,0,0,0,0,0,0,0,0,0,0,0,0,0,0,0,0,0,0,0,0,0,0,0,0,0,0,0,0,0,0,0,0,0,0,0,0,0,-3.7495,-3.7495,0,-3.7474,-3.7474,-3.7473,-3.7391,-3.7389,-3.7387,-3.7385,-3.7365,-3.7366,-3.7367,0,0,0,0,0,0,0,0,0,0,0,0,0,-3.7467,-3.7468,-3.7495,-3.7495,-3.7495,-3.7474,-3.7474,-3.7473,-3.7391,-3.7389,-3.7386,-3.7384,-3.7365,-3.7366,-3.7368,0,0,0,0,0,0,0,0,0,0,0,0,0,-3.7466,-3.7468,-3.7495,-3.7451,-3.7447,-3.7474,-3.7473,-3.7473,-3.7391,-3.7388,-3.7386,-3.7383,-3.7364,-3.7366,-3.7368,-3.7436,0,0,-3.7373,-3.7374,0,0,0,0,0,0,0,0,-3.7466,-3.7467,-3.7458,-3.7454,-3.745,-3.7432,-3.7456,-3.7461,-3.7392,-3.7413,-3.7385,-3.7382,-3.739,-3.7389,-3.7392,-3.7435,-3.7435,-3.7374,-3.7375,-3.7376,-3.7376,0,0,0,0,0,0,0,-3.7466,-3.7468,-3.7487,-3.7458,-3.7453,-3.7433,-3.743,-3.7457,-3.7417,-3.7411,-3.7404,-3.7403,-3.7387,-3.739,-3.739,-3.7434,-3.7374,-3.7375,-3.7376,-3.7377,-3.7533,-3.7536,0,0,0,0,0,0,-3.7472,-3.7468,-3.7487,-3.7486,-3.7451,-3.7436,-3.7432,-3.744,-3.7417,-3.7411,-3.7405,-3.7399,-3.7388,-3.7388,-3.739,-3.7468,-3.7376,-3.7377,-3.7378,-3.753,-3.7534,-3.7537,0,0,0,0,0,0,-3.7472,-3.7475,-3.7488,-3.7476,-3.7476,-3.7439,-3.7449,-3.7442,-3.7444,-3.7413,-3.7406,-3.7416,-3.7386,-3.7387,-3.7425,-3.7466,-3.7378,-3.738,-3.7527,-3.7531,-3.7535,-3.7625,0,0,0,0,0,0,-3.7472,-3.7475,-3.75,-3.7477,-3.7477,-3.7524,-3.7452,-3.7443,-3.7448,-3.7439,-3.7421,-3.7415,-3.7384,-3.7423,-3.7427,-3.7467,-3.7381,-3.7523,-3.7529,-3.7534,-3.7618,-3.7632,-3.7644,0,0,0,0,0,-3.7471,-3.7527,-3.7502,-3.7505,-3.7507,-3.7526,-3.7526,-3.7489,-3.7451,-3.7476,-3.7456,-3.7415,-3.7461,-3.7427,-3.7431,-3.7472,-3.752,-3.7527,-3.7534,-3.7613,-3.7629,-3.7644,0,0,0,0,0,0,-3.7557,-3.7523,-3.7495,-3.7545,-3.7539,-3.7512,-3.7543,-3.7508,-3.7513,-3.7505,-3.7459,-3.7456,-3.7501,-3.7491,-3.7454,-3.7538,-3.7484,-3.7492,-3.7542,-3.7558,-3.7571,-3.7572,-3.7383,0,0,0,0,0,-3.7582,-3.76,-3.7569,-3.7617,-3.7615,-3.758,-3.7587,-3.7558,-3.7551,-3.7548,-3.753,-3.7525,-3.7538,-3.7548,-3.7558,-3.7617,-3.7612,-3.7647,-3.766,-3.7671,-3.7678,-3.7708,-3.7723,-3.7559,-3.7559,-3.7559,0,0,-3.7634,-3.7617,-3.7631,-3.7633,-3.7625,-3.7645,-3.7578,-3.7602,-3.7617,-3.7552,-3.7586,-3.7574,-3.7565,-3.7614,-3.7634,-3.7606,-3.7722,-3.7679,-3.7688,-3.7689,-3.7717,-3.7732,-3.7746,-3.7564,-3.7563,-3.7563,0,0,-3.7737,-3.7727,-3.7765,-3.7758,-3.7747,-3.7723,-3.7732,-3.7711,-3.77,-3.7734,-3.7685,-3.7702,-3.7726,-3.7721,-3.7722,-3.7825,-3.7787,-3.783,-3.7896,-3.7926,-3.7939,-3.795,-3.7986,-3.8,-3.7837,-3.7837,-3.7837,0,-3.7803,-3.783,-3.7789,-3.7816,-3.7818,-3.776,-3.7798,-3.7794,-3.7787,-3.779,-3.7759,-3.7787,-3.7777,-3.7824,-3.7849,-3.7852,-3.7861,-3.7831,-3.794,-3.7951,-3.7961,-3.7995,-3.8009,-3.7842,-3.7842,-3.7841,-3.7841,0,-3.7911,-3.7931,-3.7963,-3.7957,-3.7963,-3.7996,-3.796,-3.7971,-3.7943,-3.7922,-3.7958,-3.7944,-3.795,-3.7959,-3.7932,-3.8003,-3.7985,-3.7948,-3.7893,-3.7982,-3.8013,-3.8026,-3.785,-3.7848,-3.7846,-3.7845,0,0,-3.8068,-3.8038,-3.8051,-3.8047,-3.8031,-3.8045,-3.8076,-3.8081,-3.8091,-3.8089,-3.8113,-3.8135,-3.81,-3.8101,-3.8073,-3.8099,-3.8181,-3.8059,-3.8058,-3.8081,-3.8257,-3.8285,-3.83,-3.8156,-3.8159,-3.8161,-3.8258,0,-3.8166,-3.8215,-3.8179,-3.8234,-3.8252,-3.8197,-3.8223,-3.8216,-3.8199,-3.8212,-3.8192,-3.8208,-3.8161,-3.8162,-3.8185,-3.8166,-3.8216,-3.8159,-3.8179,-3.818,-3.8181,-3.8317,-3.8346,-3.8438,-3.827,-3.8272,-3.8273,0,-3.8287,-3.8289,-3.8346,-3.8325,-3.8331,-3.8355,-3.8357,-3.837,-3.8362,-3.8347,-3.8348,-3.8313,-3.8342,-3.8289,-3.8328,-3.829,-3.8296,-3.8288,-3.8291,-3.829,-3.8231,-3.8319,-3.8466,-3.848,-3.8292,-3.829,-3.8289,0,-3.8395,-3.8412,-3.8448,-3.8446,-3.8423,-3.8442,-3.8433,-3.8421,-3.8427,-3.8429,-3.8432,-3.8439,-3.8442,-3.8448,-3.8415,-3.838,-3.8459,-3.8403,-3.8447,-3.8448,-3.8466,-3.8465,-3.8615,-3.8472,-3.8471,-3.8471,-3.8471,0,-3.8508,-3.8544,-3.8496,-3.8518,-3.8558,-3.8516,-3.8557,-3.8543,-3.8533,-3.8552,-3.8506,-3.8525,-3.8481,-3.8496,-3.8471,-3.8507,-3.8509,-3.8498,-3.8491,-3.8502,-3.8503,-3.8505,-3.8497,-3.8475,-3.8474,-3.8473,-3.8473,0,-3.8634,-3.8603,-3.8639,-3.8614,-3.8609,-3.8639,-3.8618,-3.8638,-3.8617,-3.8642,-3.8645,-3.8613,-3.8628,-3.8596,-3.8608,-3.8591,-3.8642,-3.8625,-3.8644,-3.8639,-3.8685,-3.8681,-3.8841,-3.8859,-3.8705,-3.8706,-3.8708,0,-3.8708,-3.8735,-3.8713,-3.8721,-3.8715,-3.873,-3.8735,-3.8696,-3.8704,-3.8696,-3.8717,-3.8727,-3.8734,-3.876,-3.8739,-3.8747,-3.8729,-3.8785,-3.873,-3.874,-3.8729,-3.8728,-3.873,-3.8796,-3.8798,-3.8799,-3.88,0,-3.8842,-3.8825,-3.8834,-3.8837,-3.8844,-3.8846,-3.8843,-3.8854,-3.8812,-3.8823,-3.8837,-3.8842,-3.8852,-3.8864,-3.8867,-3.8859,-3.8823,-3.8818,-3.8829,-3.8839,-3.8849,-3.8844,-3.8674,-3.8814,-3.8813,-3.8812,-3.8811,-3.8811,-3.8944,-3.8965,-3.8952,-3.8963,-3.8958,-3.8957,-3.8974,-3.8955,-3.8966,-3.8971,-3.8947,-3.8967,-3.8958,-3.8958,-3.8954,-3.8969,-3.8944,-3.8959,-3.8963,-3.8967,-3.8974,-3.8848,-3.8969,-3.8969,-3.8968,-3.8968,-3.8968,0,-3.9074,-3.9063,-3.9074,-3.9072,-3.9081,-3.9046,-3.9042,-3.9052,-3.9069,-3.9064,-3.9071,-3.9087,-3.9098,-3.9077,-3.9085,-3.9101,-3.9085,-3.9104,-3.9102,-3.9101,-3.8997,-3.8986,-3.9117,-3.9117,-3.9117,-3.9117,-3.9117,-3.9117,-3.9143,-3.9177,-3.9159,-3.9189,-3.9178,-3.9196,-3.9197,-3.9196,-3.9191,-3.9211,-3.9219,-3.9205,-3.9193,-3.92,-3.9209,-3.9202,-3.9207,-3.9232,-3.922,-3.9123,-3.9108,-3.9094,-3.9084,-3.9234,-3.9234,-3.9323,-3.9324,-3.9324]},{"header":{"parameterUnit":"m.s-1","parameterCategory":1,"la1":30.2991,"la2":30.254,"lo1":-89.0895,"lo2":-89.0444,"dy":0.0017,"dx":0.0017,"nx":28,"ny":28,"refTime":"2024-05-05T21:00:00:Z","depth":0,"parameterNumber":3,"parameterNumberName":"V-component_of_WINDS"},"data":[0,0,0,0,0,0,0,0,0,0,0,0,0,0,0,0,0,0,0,0,0,0,0,0,0,0,0,0,0,0,0,0,0,0,0,0,0,0,0,0,0,0,0,0,0,0,0,0,0,0,0,0,0,0,0,0,0,0,4.4505,4.4505,0,4.4533,4.4534,4.4534,4.4498,4.4497,4.4496,4.4494,4.452,4.4522,4.4524,0,0,0,0,0,0,0,0,0,0,0,0,0,4.4415,4.4417,4.4505,4.4505,4.4505,4.4533,4.4534,4.4534,4.4498,4.4497,4.4495,4.4494,4.452,4.4522,4.4524,0,0,0,0,0,0,0,0,0,0,0,0,0,4.445,4.4418,4.4505,4.4491,4.449,4.4533,4.4534,4.4534,4.4499,4.4497,4.4495,4.4493,4.4519,4.4522,4.4524,4.4581,0,0,4.4533,4.4534,0,0,0,0,0,0,0,0,4.4448,4.4453,4.4493,4.4492,4.4491,4.451,4.4512,4.455,4.4499,4.4495,4.4494,4.4492,4.4518,4.4521,4.453,4.4582,4.4583,4.4533,4.4535,4.4536,4.4537,0,0,0,0,0,0,0,4.4446,4.4452,4.4516,4.4493,4.4492,4.4482,4.4485,4.4519,4.4517,4.4496,4.4493,4.4497,4.4517,4.4528,4.4531,4.4584,4.4533,4.4536,4.4537,4.4539,4.4682,4.4684,0,0,0,0,0,0,4.4445,4.445,4.4515,4.4517,4.4464,4.4485,4.4489,4.4506,4.4517,4.4517,4.4499,4.4495,4.4524,4.4528,4.4532,4.4598,4.4536,4.4539,4.4541,4.468,4.4683,4.4685,0,0,0,0,0,0,4.4444,4.4452,4.4514,4.4483,4.449,4.4489,4.4509,4.4508,4.4518,4.4519,4.4518,4.451,4.4523,4.4528,4.4569,4.4598,4.454,4.4543,4.4677,4.4681,4.4684,4.4731,0,0,0,0,0,0,4.4441,4.4451,4.4473,4.4484,4.4492,4.4552,4.4511,4.451,4.4524,4.4519,4.453,4.4529,4.4521,4.4565,4.4572,4.4601,4.4545,4.4675,4.4679,4.4683,4.4727,4.4735,4.4743,0,0,0,0,0,4.4438,4.4485,4.4475,4.4483,4.452,4.4554,4.4558,4.4549,4.4526,4.4548,4.4549,4.4529,4.4594,4.4569,4.4577,4.4607,4.4673,4.4678,4.4682,4.4723,4.4733,4.4742,0,0,0,0,0,0,4.4477,4.4486,4.4475,4.4527,4.454,4.4548,4.4575,4.4561,4.458,4.4575,4.4562,4.4564,4.4608,4.4612,4.4584,4.4662,4.4629,4.4636,4.4658,4.4668,4.4676,4.4673,4.4547,0,0,0,0,0,4.4492,4.452,4.4526,4.4571,4.4578,4.4576,4.459,4.4582,4.4594,4.4599,4.4603,4.4615,4.4638,4.4653,4.4675,4.4728,4.4728,4.4752,4.476,4.4767,4.4772,4.4799,4.4809,4.47,4.47,4.47,0,0,4.4522,4.4531,4.4549,4.4579,4.4588,4.4616,4.458,4.4611,4.4631,4.4604,4.4643,4.4646,4.4659,4.4706,4.4727,4.471,4.4802,4.4773,4.4778,4.4779,4.4805,4.4815,4.4824,4.4704,4.4703,4.4702,0,0,4.4592,4.4602,4.464,4.465,4.4665,4.4663,4.4672,4.4682,4.4684,4.4723,4.4703,4.4726,4.4766,4.4776,4.4786,4.4859,4.4841,4.4867,4.4907,4.4934,4.4942,4.495,4.4975,4.4984,4.4872,4.4872,4.4872,0,4.4627,4.467,4.4661,4.4694,4.4707,4.4685,4.4722,4.4732,4.4753,4.4762,4.4744,4.4793,4.48,4.4849,4.4867,4.4876,4.4885,4.4865,4.4942,4.495,4.4956,4.498,4.4989,4.4875,4.4875,4.4874,4.4874,0,4.4712,4.4741,4.477,4.4792,4.4809,4.4844,4.4839,4.4857,4.4847,4.4847,4.4887,4.4895,4.4917,4.4928,4.4919,4.4975,4.4964,4.4945,4.4911,4.497,4.4992,4.5001,4.4879,4.4878,4.4877,4.4877,0,0,4.4805,4.4823,4.4833,4.4842,4.4857,4.4879,4.4913,4.4936,4.495,4.4966,4.4992,4.5027,4.5009,4.502,4.5012,4.5036,4.5092,4.5013,4.5013,4.5026,4.5153,4.5166,4.5177,4.5081,4.5083,4.5084,4.5151,0,4.4874,4.4933,4.4927,4.4983,4.5009,4.4988,4.5017,4.5029,4.503,4.5051,4.5051,4.5076,4.5051,4.5057,4.508,4.508,4.5117,4.5076,4.5104,4.5105,4.51,4.5189,4.5203,4.5266,4.516,4.5161,4.5162,0,4.4962,4.4981,4.504,4.505,4.5061,4.5088,4.5108,4.5129,4.5141,4.514,4.5153,4.5141,4.5173,4.5141,4.5184,4.5156,4.5168,4.517,4.5172,4.5173,4.5136,4.519,4.5286,4.5295,4.5176,4.5175,4.5174,0,4.5022,4.5063,4.5103,4.5112,4.5126,4.5144,4.5151,4.5161,4.5175,4.5193,4.5201,4.5222,4.5233,4.5248,4.5241,4.5219,4.5286,4.5253,4.5284,4.5284,4.5298,4.5297,4.5395,4.5308,4.5308,4.5308,4.5308,0,4.5098,4.5135,4.5131,4.5155,4.5195,4.5187,4.5226,4.523,4.524,4.5263,4.5247,4.5269,4.526,4.5281,4.5276,4.5312,4.5318,4.5316,4.5314,4.5317,4.5317,4.5323,4.5318,4.531,4.531,4.5309,4.5309,0,4.5172,4.5171,4.5214,4.5223,4.5227,4.5256,4.5263,4.5286,4.5285,4.5316,4.5322,4.5321,4.5346,4.5341,4.5368,4.5365,4.5409,4.5403,4.5405,4.5403,4.5434,4.5431,4.5539,4.5552,4.5458,4.5459,4.5459,0,4.522,4.5248,4.5261,4.5277,4.5285,4.531,4.5324,4.5317,4.5332,4.5349,4.5369,4.5392,4.541,4.545,4.5451,4.5472,4.5464,4.5501,4.5467,4.5469,4.5463,4.5461,4.5463,4.5507,4.5508,4.5509,4.5509,0,4.5305,4.5303,4.5325,4.5347,4.5365,4.5382,4.5397,4.541,4.5404,4.5422,4.5447,4.5462,4.549,4.5512,4.5531,4.5536,4.5521,4.552,4.5528,4.553,4.553,4.5529,4.5422,4.5517,4.5517,4.5516,4.5516,4.5515,4.5367,4.539,4.5403,4.5428,4.5438,4.5453,4.5474,4.5477,4.5499,4.5521,4.5515,4.5544,4.5555,4.5579,4.5586,4.5608,4.5594,4.5606,4.5609,4.5611,4.5615,4.5529,4.5611,4.5611,4.5611,4.5611,4.5611,0,4.5449,4.5457,4.548,4.5502,4.5521,4.5507,4.5523,4.5539,4.5565,4.5577,4.5596,4.5625,4.5647,4.565,4.5671,4.5687,4.5681,4.5693,4.569,4.5692,4.5626,4.5617,4.5697,4.5697,4.5697,4.5697,4.5697,4.5697,4.5495,4.5533,4.5533,4.5576,4.5583,4.5611,4.5621,4.5634,4.5644,4.5677,4.5696,4.5698,4.5706,4.5727,4.5747,4.5747,4.5754,4.5769,4.5766,4.5705,4.5696,4.5688,4.5679,4.5771,4.5771,4.5829,4.583,4.583]}]]